DLH5TV EDDF-EDDL

Flight info

Callsign DLH5TV
Flight time 0h 31m
Altitude 22000
Route MARUN3W/25C MARUN Y152 ARPEG Z850 ADEMI T854 DOMUX DOMUX1A
Aircraft A321/M-SDE3FGHIRWY/LB1

Departure

Time 2026-04-17 12:41
Airport Frankfurt Main Airport (EDDF)

Arrival

Time 2026-04-17 13:12
Airport Düsseldorf Airport (EDDL)
Time Latitude Longitude Altitude Speed Heading
2026-04-17 12:19 50.04904 8.58794 362 ft 0 kts 160°
2026-04-17 12:19 50.04905 8.58794 362 ft 0 kts 160°
2026-04-17 12:24 50.04905 8.58793 362 ft 0 kts 160°
2026-04-17 12:28 50.04906 8.58793 366 ft 2 kts 160°
2026-04-17 12:29 50.04924 8.58782 365 ft 3 kts 160°
2026-04-17 12:29 50.04943 8.58774 364 ft 3 kts 199°
2026-04-17 12:29 50.04957 8.58791 363 ft 2 kts 250°
2026-04-17 12:29 50.04958 8.58793 362 ft 0 kts 250°
2026-04-17 12:33 50.04957 8.58790 363 ft 2 kts 250°
2026-04-17 12:33 50.04938 8.58718 360 ft 11 kts 240°
2026-04-17 12:34 50.04872 8.58693 364 ft 10 kts 166°
2026-04-17 12:34 50.04850 8.58704 365 ft 0 kts 160°
2026-04-17 12:34 50.04826 8.58718 367 ft 6 kts 159°
2026-04-17 12:34 50.04796 8.58736 368 ft 0 kts 159°
2026-04-17 12:37 50.04637 8.58756 370 ft 0 kts 188°
2026-04-17 12:39 50.04625 8.58752 370 ft 5 kts 193°
2026-04-17 12:40 50.04580 8.58709 371 ft 10 kts 218°
2026-04-17 12:40 50.04523 8.58639 371 ft 11 kts 218°
2026-04-17 12:40 50.04460 8.58472 370 ft 36 kts 249°
2026-04-17 12:40 50.04280 8.57719 363 ft 110 kts 249°
2026-04-17 12:41 50.03943 8.56307 355 ft 167 kts 250°
2026-04-17 12:41 50.03521 8.54540 891 ft 173 kts 248°
2026-04-17 12:41 50.03098 8.52793 1659 ft 174 kts 247°
2026-04-17 12:41 50.02633 8.50947 1964 ft 195 kts 243°
2026-04-17 12:42 50.01806 8.49244 2448 ft 201 kts 220°
2026-04-17 12:42 50.00583 8.48177 2986 ft 205 kts 197°
2026-04-17 12:42 49.99170 8.47786 3535 ft 209 kts 188°
2026-04-17 12:42 49.97731 8.47469 4132 ft 209 kts 188°
2026-04-17 12:43 49.96311 8.47159 4760 ft 209 kts 189°
2026-04-17 12:43 49.94873 8.46581 5123 ft 222 kts 195°
2026-04-17 12:43 49.93317 8.45868 5364 ft 241 kts 195°
2026-04-17 12:43 49.91798 8.44692 5886 ft 249 kts 222°
2026-04-17 12:44 49.90836 8.42479 6601 ft 253 kts 250°
2026-04-17 12:44 49.90635 8.39769 7098 ft 257 kts 277°
2026-04-17 12:44 49.91303 8.37234 7190 ft 257 kts 308°
2026-04-17 12:44 49.92700 8.35530 7218 ft 259 kts 335°
2026-04-17 12:45 49.94416 8.34410 7223 ft 276 kts 337°
2026-04-17 12:45 49.96209 8.33263 7221 ft 281 kts 337°
2026-04-17 12:45 49.98016 8.32103 7220 ft 281 kts 336°
2026-04-17 12:45 49.99799 8.30953 7220 ft 282 kts 337°
2026-04-17 12:46 50.01605 8.29782 7217 ft 282 kts 336°
2026-04-17 12:46 50.03475 8.28853 7219 ft 283 kts 348°
2026-04-17 12:46 50.05434 8.28622 7219 ft 283 kts
2026-04-17 12:46 50.07384 8.29142 7443 ft 288 kts 17°
2026-04-17 12:47 50.09274 8.30154 8256 ft 288 kts 18°
2026-04-17 12:47 50.11180 8.31154 9020 ft 290 kts 18°
2026-04-17 12:47 50.13100 8.32144 9779 ft 291 kts 18°
2026-04-17 12:47 50.15030 8.33139 10449 ft 296 kts 18°
2026-04-17 12:48 50.17055 8.34183 10609 ft 318 kts 17°
2026-04-17 12:48 50.19228 8.35307 10733 ft 339 kts 17°
2026-04-17 12:48 50.21520 8.36505 10998 ft 353 kts 17°
2026-04-17 12:48 50.23832 8.37719 11524 ft 358 kts 18°
2026-04-17 12:49 50.26203 8.38970 12129 ft 361 kts 18°
2026-04-17 12:49 50.28593 8.40232 12733 ft 364 kts 17°
2026-04-17 12:49 50.31005 8.41510 13352 ft 367 kts 17°
2026-04-17 12:49 50.33427 8.42821 13958 ft 371 kts 18°
2026-04-17 12:50 50.35874 8.44162 14486 ft 374 kts 18°
2026-04-17 12:50 50.38341 8.45524 14997 ft 378 kts 18°
2026-04-17 12:50 50.40833 8.46901 15509 ft 381 kts 18°
2026-04-17 12:50 50.43340 8.48287 16023 ft 384 kts 18°
2026-04-17 12:51 50.45869 8.49676 16538 ft 387 kts 17°
2026-04-17 12:51 50.48425 8.51054 17044 ft 390 kts 17°
2026-04-17 12:51 50.51019 8.52355 17566 ft 393 kts 15°
2026-04-17 12:51 50.53608 8.53580 18051 ft 395 kts 14°
2026-04-17 12:52 50.56257 8.54801 18530 ft 398 kts 14°
2026-04-17 12:52 50.58919 8.56033 18990 ft 400 kts 14°
2026-04-17 12:52 50.61592 8.57287 19435 ft 401 kts 14°
2026-04-17 12:52 50.64272 8.58557 19871 ft 404 kts 14°
2026-04-17 12:53 50.66965 8.59847 20290 ft 406 kts 14°
2026-04-17 12:53 50.69662 8.61150 20712 ft 408 kts 14°
2026-04-17 12:53 50.72389 8.62475 21128 ft 410 kts 14°
2026-04-17 12:53 50.75107 8.63696 21522 ft 411 kts
2026-04-17 12:54 50.77936 8.64131 21852 ft 408 kts 356°
2026-04-17 12:54 50.80735 8.63586 22104 ft 405 kts 343°
2026-04-17 12:54 50.83385 8.62103 22200 ft 406 kts 332°
2026-04-17 12:54 50.85782 8.59752 22202 ft 406 kts 320°
2026-04-17 12:55 50.87797 8.56643 22203 ft 405 kts 309°
2026-04-17 12:55 50.89618 8.53232 22203 ft 405 kts 309°
2026-04-17 12:55 50.91440 8.49823 22204 ft 405 kts 309°
2026-04-17 12:55 50.93239 8.46456 22203 ft 407 kts 309°
2026-04-17 12:56 50.95072 8.43027 22209 ft 408 kts 309°
2026-04-17 12:56 50.96903 8.39588 22208 ft 408 kts 309°
2026-04-17 12:56 50.98734 8.36149 22208 ft 408 kts 309°
2026-04-17 12:56 51.00604 8.32760 22206 ft 409 kts 313°
2026-04-17 12:57 51.02763 8.29827 22204 ft 410 kts 323°
2026-04-17 12:57 51.05211 8.27475 22205 ft 412 kts 329°
2026-04-17 12:57 51.07714 8.25268 22200 ft 411 kts 328°
2026-04-17 12:57 51.10213 8.23048 22198 ft 411 kts 328°
2026-04-17 12:58 51.12708 8.20822 22196 ft 412 kts 328°
2026-04-17 12:58 51.15176 8.18619 22194 ft 412 kts 328°
2026-04-17 12:58 51.17705 8.16359 22193 ft 411 kts 328°
2026-04-17 12:58 51.20166 8.14159 22194 ft 411 kts 328°
2026-04-17 12:59 51.22660 8.11922 22191 ft 411 kts 328°
2026-04-17 12:59 51.25153 8.09684 22185 ft 412 kts 328°
2026-04-17 12:59 51.27654 8.07440 22183 ft 412 kts 328°
2026-04-17 12:59 51.30153 8.05198 22195 ft 413 kts 328°
2026-04-17 13:00 51.32660 8.02953 22195 ft 413 kts 328°
2026-04-17 13:00 51.35166 8.00700 22198 ft 413 kts 328°
2026-04-17 13:00 51.37651 7.98457 22044 ft 405 kts 328°
2026-04-17 13:00 51.40041 7.96297 21780 ft 394 kts 328°
2026-04-17 13:01 51.42377 7.94102 21324 ft 386 kts 322°
2026-04-17 13:01 51.44330 7.91251 20784 ft 377 kts 307°
2026-04-17 13:01 51.45708 7.87742 20271 ft 369 kts 292°
2026-04-17 13:01 51.46449 7.83855 19777 ft 363 kts 278°
2026-04-17 13:02 51.46535 7.79855 19285 ft 358 kts 263°
2026-04-17 13:02 51.46006 7.75986 18793 ft 354 kts 254°
2026-04-17 13:02 51.45326 7.72207 18238 ft 352 kts 254°
2026-04-17 13:02 51.44652 7.68469 17776 ft 346 kts 254°
2026-04-17 13:03 51.43998 7.64849 17317 ft 341 kts 254°
2026-04-17 13:03 51.43341 7.61228 16862 ft 336 kts 254°
2026-04-17 13:03 51.42693 7.57656 16397 ft 332 kts 254°
2026-04-17 13:03 51.42057 7.54128 15940 ft 328 kts 254°
2026-04-17 13:04 51.41437 7.50624 15483 ft 326 kts 255°
2026-04-17 13:04 51.40838 7.47136 15022 ft 323 kts 255°
2026-04-17 13:04 51.40252 7.43672 14564 ft 321 kts 255°
2026-04-17 13:04 51.39670 7.40232 14110 ft 319 kts 255°
2026-04-17 13:05 51.39098 7.36862 13622 ft 317 kts 255°
2026-04-17 13:05 51.38515 7.33471 13167 ft 315 kts 254°
2026-04-17 13:05 51.38037 7.30054 12492 ft 317 kts 265°
2026-04-17 13:05 51.38280 7.26542 11202 ft 323 kts 288°
2026-04-17 13:06 51.39421 7.23469 10232 ft 321 kts 314°
2026-04-17 13:06 51.40993 7.21153 9962 ft 295 kts 314°
2026-04-17 13:06 51.42440 7.18923 9328 ft 285 kts 314°
2026-04-17 13:06 51.43841 7.16709 8584 ft 280 kts 310°
2026-04-17 13:07 51.44808 7.14085 7843 ft 272 kts 285°
2026-04-17 13:07 51.45000 7.11108 7051 ft 268 kts 261°
2026-04-17 13:07 51.44443 7.08318 6349 ft 262 kts 238°
2026-04-17 13:07 51.43345 7.06074 5641 ft 257 kts 226°
2026-04-17 13:08 51.42159 7.03940 4952 ft 255 kts 230°
2026-04-17 13:08 51.41075 7.01711 4261 ft 253 kts 232°
2026-04-17 13:08 51.40028 6.99473 3596 ft 250 kts 233°
2026-04-17 13:08 51.39007 6.97302 3179 ft 238 kts 233°
2026-04-17 13:09 51.38037 6.95249 2856 ft 223 kts 233°
2026-04-17 13:09 51.37129 6.93329 2542 ft 212 kts 233°
2026-04-17 13:09 51.36273 6.91519 2283 ft 193 kts 233°
2026-04-17 13:09 51.35510 6.89909 2043 ft 173 kts 233°
2026-04-17 13:10 51.35044 6.88926 1877 ft 162 kts 233°
2026-04-17 13:10 51.34392 6.87552 1623 ft 150 kts 233°
2026-04-17 13:10 51.33582 6.85829 1363 ft 144 kts 233°
2026-04-17 13:10 51.32969 6.84535 1164 ft 147 kts 233°
2026-04-17 13:11 51.32353 6.83246 989 ft 144 kts 233°
2026-04-17 13:11 51.31954 6.82407 857 ft 143 kts 234°
2026-04-17 13:11 51.31355 6.81151 698 ft 142 kts 234°
2026-04-17 13:11 51.30756 6.79887 494 ft 144 kts 234°
2026-04-17 13:12 51.30151 6.78621 321 ft 143 kts 234°
2026-04-17 13:12 51.29028 6.76250 127 ft 102 kts 233°
2026-04-17 13:12 51.28618 6.75391 124 ft 39 kts 233°
2026-04-17 13:13 51.28546 6.75242 121 ft 21 kts 231°
2026-04-17 13:13 51.28451 6.75045 119 ft 23 kts 232°
2026-04-17 13:13 51.28364 6.74935 118 ft 16 kts 176°
2026-04-17 13:13 51.28269 6.75004 119 ft 15 kts 154°
2026-04-17 13:14 51.28173 6.75083 119 ft 16 kts 154°
2026-04-17 13:14 51.28070 6.75164 122 ft 17 kts 154°
2026-04-17 13:14 51.27964 6.75249 121 ft 17 kts 153°
2026-04-17 13:14 51.27871 6.75324 120 ft 11 kts 153°
2026-04-17 13:15 51.27844 6.75417 124 ft 10 kts 68°
2026-04-17 13:15 51.27891 6.75521 125 ft 13 kts 53°
2026-04-17 13:15 51.27948 6.75643 127 ft 13 kts 52°
2026-04-17 13:15 51.28007 6.75764 127 ft 15 kts 52°
2026-04-17 13:16 51.28078 6.75914 127 ft 18 kts 53°
2026-04-17 13:16 51.28153 6.76070 127 ft 17 kts 53°
2026-04-17 13:16 51.28202 6.76201 127 ft 11 kts 91°
2026-04-17 13:16 51.28154 6.76295 123 ft 10 kts 130°
2026-04-17 13:17 51.28123 6.76380 126 ft 7 kts 110°
2026-04-17 13:17 51.28114 6.76459 123 ft 7 kts 97°
2026-04-17 13:17 51.28109 6.76527 126 ft 4 kts 96°
2026-04-17 13:17 51.28108 6.76540 127 ft 0 kts 96°